Regional Weather Roundup
Issued by NWS

Home | Current Version | Previous Version | Graphics & Text | Print | Product List | Glossary On
Versions: 1 2 3 4 5 6 7 8 9 10 11 12 13 14 15 16 17 18 19 20 21 22 23 24 25 26 27 28 29 30 31 32 33 34 35 36 37 38 39 40 41 42 43 44 45 46 47 48 49 50
000
ASUS43 KLMK 221310
RWRKY
KENTUCKY REGIONAL WEATHER ROUNDUP
NATIONAL WEATHER SERVICE LOUISVILLE KY
900 AM EDT FRI AUG 22 2014

NOTE "FAIR" INDICATES FEW OR NO CLOUDS BELOW 12,000 FEET
WITH NO SIGNIFICANT WEATHER AND/OR OBSTRUCTIONS TO VISIBILITY.

KYZ001>023-026-027-061>063-070>075-221400-
WESTERN AND SOUTH CENTRAL KENTUCKY

CITY           SKY/WX    TMP DP  RH WIND       PRES   REMARKS
PADUCAH        SUNNY     79  74  84 SW8       30.04S
HENDERSON      PTSUNNY   79  72  78 SW9       30.02R
OWENSBORO      MOSUNNY   79  75  87 SW7       30.04R
HOPKINSVILLE   SUNNY     79  79 100 SW9       30.08R
BOWLING GREEN  MOSUNNY   79  73  82 SW7       30.08R
GLASGOW        MOSUNNY   77  74  88 SW7       30.08S
$$

KYZ024-025-028>034-038-045-046-053-221400-
NORTH CENTRAL KENTUCKY

CITY           SKY/WX    TMP DP  RH WIND       PRES   REMARKS
LOUISVILLE/SDF CLOUDY    80  73  79 SW6       30.02R
LOUISVILLE/LOU PTSUNNY   79  73  82 SW6       30.02S
FORT KNOX      PTSUNNY   77  77 100 SW7       30.03R
$$

KYZ035>037-039>044-047>052-055>060-089>105-221400-
NORTHEAST KENTUCKY

CITY           SKY/WX    TMP DP  RH WIND       PRES   REMARKS
LEXINGTON      CLOUDY    78  72  81 SW9       30.06R
COVINGTON      CLOUDY    75  72  90 CALM      30.02R
FRANKFORT      PTSUNNY   76  72  87 SW7       30.03R
$$

KYZ054-064>069-076>088-106>120-221400-
SOUTHEAST KENTUCKY

CITY           SKY/WX    TMP DP  RH WIND       PRES   REMARKS
JACKSON        PTSUNNY   74  70  87 CALM      30.10S
LONDON         PTSUNNY   75  70  84 CALM      30.12R
SOMERSET       PTSUNNY   77  73  88 CALM      30.11R
MIDDLESBORO    CLOUDY    70  70  99 CALM      30.13S
MONTICELLO     SUNNY     79  74  84 SW5       30.11S
$$



USA.gov is the U.S. government's official web portal to all federal, state and local government web resources and services.